^^
Datos históricos de la estación: Murcia-Puente Tocinos
Diario Informe para Julio 13, 2019 Unidades:  Métrico    Inglés   Ambas
Diario Semanal Mensual Anual Configurable
  Máximo: Mínimo: Media:
Temperatura: 34.5 °C 25.7 °C 29.3 °C
Punto de rocio: 21.6 °C 10.9 °C 15.5 °C
Humedad: 77% 31% 44%
Velocidad viento: 18.3km/h 0.0km/h 9.9km/h
Racha viento: 35.2km/h - -
Viento- - ESE
Presión: 1013.4 hPa 1008.4 hPa -
Precipitación: 0.0 mm    
Historical Graphs
 
 
Tabla de datos para Julio 13, 2019
Hora Temperatura Punto de rocio Presión Viento Velocidad viento Racha viento Humedad Intensidad lluvia(por hora) Nubes
00:04 27.6 °C 13.9 °C 1012.7 hPa ENE 4.7 km/h 7.4 km/h 43% 0.0 mm CLR
00:09 27.6 °C 13.9 °C 1012.7 hPa NW 3.9 km/h 7.4 km/h 43% 0.0 mm CLR
00:14 27.6 °C 13.9 °C 1012.7 hPa NW 3.9 km/h   43% 0.0 mm CLR
00:19 27.6 °C 13.9 °C 1012.6 hPa ENE 2.3 km/h 5.8 km/h 43% 0.0 mm CLR
00:24 27.6 °C 13.9 °C 1012.6 hPa NE 2.3 km/h 7.4 km/h 43% 0.0 mm CLR
00:29 27.4 °C 14.1 °C 1012.6 hPa NNW 4.7 km/h 9.3 km/h 44% 0.0 mm CLR
00:34 27.3 °C 13.6 °C 1012.5 hPa ENE 4.7 km/h 7.4 km/h 43% 0.0 mm CLR
00:39 27.3 °C 13.6 °C 1012.5 hPa NNE 3.9 km/h 3.9 km/h 43% 0.0 mm CLR
00:44 27.3 °C 14.0 °C 1012.5 hPa NNE 3.9 km/h 7.4 km/h 44% 0.0 mm CLR
00:49 27.2 °C 14.2 °C 1012.5 hPa NE 4.7 km/h 5.6 km/h 45% 0.0 mm CLR
00:54 27.2 °C 14.2 °C 1012.5 hPa NE 4.7 km/h   45% 0.0 mm CLR
00:59 27.2 °C 14.6 °C 1012.5 hPa Calm     46% 0.0 mm CLR
01:04 27.3 °C 14.7 °C 1013.0 hPa Calm   3.2 km/h 46% 0.0 mm CLR
01:09 27.3 °C 14.7 °C 1013.0 hPa NNE 2.3 km/h 3.7 km/h 46% 0.0 mm CLR
01:14 27.4 °C 14.4 °C 1013.0 hPa SE 2.3 km/h 5.6 km/h 45% 0.0 mm CLR
01:19 27.4 °C 14.4 °C 1013.0 hPa SSE 3.2 km/h 7.4 km/h 45% 0.0 mm CLR
01:24 27.4 °C 14.4 °C 1013.0 hPa South 3.2 km/h 4.7 km/h 45% 0.0 mm CLR
01:29 27.4 °C 14.1 °C 1013.0 hPa South 4.7 km/h 5.6 km/h 44% 0.0 mm CLR
01:34 27.5 °C 14.2 °C 1013.2 hPa SSW 4.7 km/h 3.7 km/h 44% 0.0 mm CLR
01:39 27.6 °C 14.2 °C 1013.2 hPa SW 3.2 km/h 7.6 km/h 44% 0.0 mm CLR
01:44 27.6 °C 14.2 °C 1013.2 hPa SW 3.2 km/h 9.3 km/h 44% 0.0 mm CLR
01:49 27.6 °C 13.9 °C 1013.4 hPa SSW 4.7 km/h 3.2 km/h 43% 0.0 mm CLR
01:54 27.7 °C 14.0 °C 1013.4 hPa NNE 4.7 km/h 5.0 km/h 43% 0.0 mm CLR
01:59 27.8 °C 14.1 °C 1013.4 hPa SE 3.9 km/h 11.1 km/h 43% 0.0 mm CLR
02:04 27.8 °C 13.7 °C 1013.1 hPa ESE 3.9 km/h 9.3 km/h 42% 0.0 mm CLR
02:09 27.7 °C 13.3 °C 1013.1 hPa SSE 6.4 km/h 11.1 km/h 41% 0.0 mm CLR
02:14 27.6 °C 12.8 °C 1013.1 hPa South 6.4 km/h 13.0 km/h 40% 0.0 mm CLR
02:19 27.6 °C 12.4 °C 1012.9 hPa SSE 8.4 km/h 9.5 km/h 39% 0.0 mm CLR
02:24 27.6 °C 12.0 °C 1012.9 hPa SSE 8.4 km/h 8.4 km/h 38% 0.0 mm CLR
02:29 27.6 °C 11.6 °C 1012.9 hPa SE 5.8 km/h 3.7 km/h 37% 0.0 mm CLR
02:34 27.7 °C 11.7 °C 1012.5 hPa ESE 5.8 km/h 5.6 km/h 37% 0.0 mm CLR
02:39 27.6 °C 11.2 °C 1012.5 hPa SSE 3.9 km/h 9.3 km/h 36% 0.0 mm CLR
02:44 27.6 °C 11.6 °C 1012.5 hPa SE 3.9 km/h 7.4 km/h 37% 0.0 mm CLR
02:49 27.6 °C 11.6 °C 1012.4 hPa SSE 5.0 km/h   37% 0.0 mm CLR
02:54 27.6 °C 11.6 °C 1012.4 hPa SSE 5.0 km/h 3.2 km/h 37% 0.0 mm CLR
02:59 27.6 °C 11.2 °C 1012.4 hPa NE 2.3 km/h 5.6 km/h 36% 0.0 mm CLR
03:04 27.6 °C 11.6 °C 1012.2 hPa NE 2.3 km/h   37% 0.0 mm CLR
03:09 27.5 °C 11.5 °C 1012.2 hPa NW 2.9 km/h 7.4 km/h 37% 0.0 mm CLR
03:14 27.4 °C 11.4 °C 1012.2 hPa SSW 2.9 km/h 7.6 km/h 37% 0.0 mm CLR
03:19 27.4 °C 11.4 °C 1012.9 hPa SW 5.8 km/h 11.1 km/h 37% 0.0 mm CLR
03:24 27.6 °C 11.2 °C 1012.9 hPa West 5.8 km/h 9.3 km/h 36% 0.0 mm CLR
03:29 27.7 °C 11.3 °C 1012.9 hPa NNW 5.0 km/h 5.8 km/h 36% 0.0 mm CLR
03:34 27.6 °C 12.0 °C 1012.3 hPa ENE 5.0 km/h 7.4 km/h 38% 0.0 mm CLR
03:39 27.5 °C 12.3 °C 1012.3 hPa NNW 3.9 km/h 7.4 km/h 39% 0.0 mm CLR
03:44 27.4 °C 12.6 °C 1012.3 hPa NNW 3.9 km/h 2.9 km/h 40% 0.0 mm CLR
03:49 27.3 °C 12.1 °C 1011.8 hPa NNE 2.9 km/h 6.4 km/h 39% 0.0 mm CLR
03:54 27.2 °C 12.1 °C 1011.8 hPa ENE 2.9 km/h 7.4 km/h 39% 0.0 mm CLR
03:59 27.1 °C 12.7 °C 1011.8 hPa SE 5.0 km/h 9.3 km/h 41% 0.0 mm CLR
04:04 26.8 °C 12.4 °C 1011.6 hPa SE 5.0 km/h 11.1 km/h 41% 0.0 mm CLR
04:09 26.7 °C 12.3 °C 1011.6 hPa NNE 6.4 km/h 7.4 km/h 41% 0.0 mm CLR
04:14 26.6 °C 12.6 °C 1011.6 hPa NNW 6.4 km/h 13.0 km/h 42% 0.0 mm CLR
04:19 26.3 °C 12.7 °C 1010.6 hPa WNW 7.6 km/h 13.0 km/h 43% 0.0 mm CLR
04:24 26.2 °C 13.0 °C 1010.6 hPa ESE 7.6 km/h 7.4 km/h 44% 0.0 mm CLR
04:29 26.2 °C 12.6 °C 1010.6 hPa SE 5.8 km/h 2.3 km/h 43% 0.0 mm CLR
04:34 26.3 °C 12.7 °C 1010.5 hPa ENE 5.8 km/h 5.8 km/h 43% 0.0 mm CLR
04:39 26.4 °C 12.8 °C 1010.5 hPa East 3.9 km/h 9.3 km/h 43% 0.0 mm CLR
04:44 26.3 °C 13.1 °C 1010.5 hPa NE 3.9 km/h 11.1 km/h 44% 0.0 mm CLR
04:49 26.2 °C 13.0 °C 1010.1 hPa SE 6.4 km/h 7.4 km/h 44% 0.0 mm CLR
04:54 26.3 °C 13.1 °C 1010.1 hPa SE 6.4 km/h 18.5 km/h 44% 0.0 mm CLR
04:59 26.2 °C 13.0 °C 1010.1 hPa NE 8.4 km/h 9.3 km/h 44% 0.0 mm CLR
05:04 26.1 °C 12.9 °C 1009.9 hPa NW 8.4 km/h 7.4 km/h 44% 0.0 mm CLR
05:09 25.8 °C 12.9 °C 1009.9 hPa North 8.4 km/h 13.0 km/h 45% 0.0 mm CLR
05:14 25.8 °C 12.9 °C 1009.9 hPa SW 8.4 km/h 5.8 km/h 45% 0.0 mm CLR
05:19 25.8 °C 12.9 °C 1010.5 hPa SE 5.0 km/h 13.0 km/h 45% 0.0 mm CLR
05:24 26.0 °C 12.8 °C 1010.5 hPa SSW 5.0 km/h 10.0 km/h 44% 0.0 mm CLR
05:29 26.1 °C 12.9 °C 1010.5 hPa WSW 6.9 km/h 5.6 km/h 44% 0.0 mm CLR
05:34 26.2 °C 12.6 °C 1010.6 hPa SSE 6.9 km/h 7.4 km/h 43% 0.0 mm CLR
05:39 26.3 °C 12.7 °C 1010.6 hPa SSE 4.7 km/h 3.9 km/h 43% 0.0 mm CLR
05:44 26.3 °C 12.7 °C 1010.6 hPa SW 4.7 km/h 7.4 km/h 43% 0.0 mm CLR
05:49 26.4 °C 12.4 °C 1011.1 hPa SW 4.7 km/h 8.7 km/h 42% 0.0 mm CLR
05:54 26.5 °C 12.6 °C 1011.1 hPa WNW 4.7 km/h 7.4 km/h 42% 0.0 mm CLR
05:59 26.5 °C 12.6 °C 1011.1 hPa WNW 5.0 km/h 3.7 km/h 42% 0.0 mm CLR
06:04 26.5 °C 12.2 °C 1011.1 hPa WNW 5.0 km/h 5.6 km/h 41% 0.0 mm CLR
06:09 26.4 °C 12.1 °C 1011.1 hPa West 4.7 km/h 11.1 km/h 41% 0.0 mm CLR
06:14 26.3 °C 11.6 °C 1011.1 hPa WSW 4.7 km/h 13.0 km/h 40% 0.0 mm CLR
06:19 26.3 °C 11.6 °C 1011.9 hPa SSW 6.9 km/h 11.1 km/h 40% 0.0 mm CLR
06:24 26.4 °C 11.3 °C 1011.9 hPa SW 6.9 km/h 13.0 km/h 39% 0.0 mm CLR
06:29 26.6 °C 11.1 °C 1011.9 hPa NE 7.6 km/h 9.5 km/h 38% 0.0 mm CLR
06:34 26.7 °C 11.2 °C 1011.3 hPa WNW 7.6 km/h 8.7 km/h 38% 0.0 mm CLR
06:39 26.6 °C 11.9 °C 1011.3 hPa NW 6.4 km/h 7.4 km/h 40% 0.0 mm CLR
06:44 26.4 °C 11.7 °C 1011.3 hPa NNW 6.4 km/h 3.7 km/h 40% 0.0 mm CLR
06:49 26.4 °C 11.7 °C 1012.0 hPa SE 3.2 km/h 6.4 km/h 40% 0.0 mm CLR
06:54 26.4 °C 11.7 °C 1012.0 hPa SE 3.2 km/h 9.3 km/h 40% 0.0 mm CLR
06:59 26.4 °C 11.3 °C 1012.0 hPa East 6.4 km/h 7.4 km/h 39% 0.0 mm CLR
07:04 26.3 °C 11.6 °C 1011.5 hPa East 6.4 km/h 7.4 km/h 40% 0.0 mm CLR
07:09 26.2 °C 11.6 °C 1011.5 hPa SSW 5.0 km/h 9.3 km/h 40% 0.0 mm CLR
07:14 26.1 °C 12.2 °C 1011.5 hPa SSW 5.0 km/h 3.7 km/h 42% 0.0 mm CLR
07:19 25.9 °C 13.1 °C 1011.7 hPa SSE 3.9 km/h 9.5 km/h 45% 0.0 mm CLR
07:24 25.7 °C 12.6 °C 1011.7 hPa SE 3.9 km/h 13.0 km/h 44% 0.0 mm CLR
07:29 25.7 °C 12.2 °C 1011.7 hPa SE 10.3 km/h 14.8 km/h 43% 0.0 mm CLR
07:34 25.7 °C 11.1 °C 1011.5 hPa South 10.3 km/h 7.4 km/h 40% 0.0 mm CLR
07:39 25.8 °C 11.9 °C 1011.5 hPa SSE 6.4 km/h 9.3 km/h 42% 0.0 mm CLR
07:44 25.9 °C 11.6 °C 1011.5 hPa SE 6.4 km/h 11.1 km/h 41% 0.0 mm CLR
07:49 25.9 °C 12.0 °C 1011.1 hPa NE 5.8 km/h 6.9 km/h 42% 0.0 mm CLR
07:54 25.8 °C 11.6 °C 1011.1 hPa East 5.8 km/h 8.4 km/h 41% 0.0 mm CLR
07:59 25.8 °C 11.2 °C 1011.1 hPa SE 5.8 km/h 9.3 km/h 40% 0.0 mm CLR
08:04 25.8 °C 11.2 °C 1011.2 hPa SE 5.8 km/h 13.0 km/h 40% 0.0 mm CLR
08:09 25.9 °C 10.9 °C 1011.2 hPa ESE 7.6 km/h 7.4 km/h 39% 0.0 mm CLR
08:14 26.2 °C 11.9 °C 1011.2 hPa NW 7.6 km/h 5.6 km/h 41% 0.0 mm CLR
08:19 26.1 °C 12.6 °C 1011.5 hPa NNW 3.9 km/h 11.1 km/h 43% 0.0 mm CLR
08:24 25.9 °C 12.7 °C 1011.5 hPa NW 3.9 km/h 9.3 km/h 44% 0.0 mm CLR
08:29 25.9 °C 12.7 °C 1011.5 hPa NW 5.0 km/h   44% 0.0 mm CLR
08:34 26.0 °C 12.8 °C 1012.3 hPa NW 5.0 km/h 3.9 km/h 44% 0.0 mm CLR
08:39 26.1 °C 12.6 °C 1012.3 hPa NW 2.3 km/h   43% 0.0 mm CLR
08:44 26.3 °C 12.4 °C 1012.3 hPa East 2.3 km/h 7.4 km/h 42% 0.0 mm CLR
08:49 26.4 °C 12.8 °C 1011.9 hPa WNW 2.9 km/h 7.4 km/h 43% 0.0 mm CLR
08:54 26.3 °C 13.1 °C 1011.9 hPa WNW 2.9 km/h 13.0 km/h 44% 0.0 mm CLR
08:59 26.3 °C 12.7 °C 1011.9 hPa NW 7.6 km/h 9.3 km/h 43% 0.0 mm CLR
09:04 26.4 °C 12.4 °C 1012.2 hPa NW 7.6 km/h 8.7 km/h 42% 0.0 mm CLR
09:09 26.7 °C 12.7 °C 1012.2 hPa NE 5.0 km/h 7.4 km/h 42% 0.0 mm CLR
09:14 27.1 °C 12.7 °C 1012.2 hPa NNE 5.0 km/h 11.9 km/h 41% 0.0 mm CLR
09:19 27.2 °C 13.2 °C 1011.6 hPa North 6.4 km/h 8.4 km/h 42% 0.0 mm CLR
09:24 27.2 °C 12.8 °C 1011.6 hPa WNW 6.4 km/h 3.7 km/h 41% 0.0 mm CLR
09:29 27.3 °C 12.5 °C 1011.6 hPa NNE 3.2 km/h 9.5 km/h 40% 0.0 mm CLR
09:34 27.4 °C 12.6 °C 1012.4 hPa NE 3.2 km/h 7.4 km/h 40% 0.0 mm CLR
09:39 27.6 °C 12.8 °C 1012.4 hPa WSW 4.7 km/h 5.0 km/h 40% 0.0 mm CLR
09:44 27.8 °C 12.6 °C 1012.4 hPa SSE 4.7 km/h 7.4 km/h 39% 0.0 mm CLR
09:49 28.0 °C 12.3 °C 1012.0 hPa NE 5.8 km/h 16.7 km/h 38% 0.0 mm CLR
09:54 27.8 °C 12.9 °C 1012.0 hPa NNW 5.8 km/h 9.3 km/h 40% 0.0 mm CLR
09:59 27.8 °C 12.9 °C 1012.0 hPa NNW 8.4 km/h 7.4 km/h 40% 0.0 mm CLR
10:04 27.8 °C 13.3 °C 1012.2 hPa East 8.4 km/h 9.3 km/h 41% 0.0 mm CLR
10:09 28.0 °C 13.5 °C 1012.2 hPa NE 5.8 km/h 3.7 km/h 41% 0.0 mm CLR
10:14 28.3 °C 13.0 °C 1012.2 hPa North 5.8 km/h 7.4 km/h 39% 0.0 mm CLR
10:19 28.6 °C 13.3 °C 1012.2 hPa ENE 4.7 km/h 9.3 km/h 39% 0.0 mm CLR
10:24 29.0 °C 11.6 °C 1012.2 hPa NE 4.7 km/h 14.8 km/h 34% 0.0 mm CLR
10:29 29.3 °C 11.8 °C 1012.2 hPa NE 9.5 km/h 14.8 km/h 34% 0.0 mm CLR
10:34 29.4 °C 11.4 °C 1012.4 hPa North 9.5 km/h 11.1 km/h 33% 0.0 mm CLR
10:39 29.7 °C 12.2 °C 1012.4 hPa NNE 8.4 km/h 11.9 km/h 34% 0.0 mm CLR
10:44 29.9 °C 12.3 °C 1012.4 hPa NE 8.4 km/h 9.3 km/h 34% 0.0 mm CLR
10:49 30.2 °C 12.6 °C 1012.4 hPa NNE 8.4 km/h 11.1 km/h 34% 0.0 mm CLR
10:54 30.2 °C 13.1 °C 1012.4 hPa ENE 8.4 km/h 13.7 km/h 35% 0.0 mm CLR
10:59 30.3 °C 12.7 °C 1012.4 hPa NE 10.3 km/h 16.1 km/h 34% 0.0 mm CLR
11:04 30.4 °C 13.2 °C 1012.3 hPa NNE 10.3 km/h 13.0 km/h 35% 0.0 mm CLR
11:09 30.7 °C 13.5 °C 1012.3 hPa NE 10.3 km/h 20.4 km/h 35% 0.0 mm CLR
11:14 30.8 °C 13.6 °C 1012.3 hPa ENE 10.3 km/h 11.1 km/h 35% 0.0 mm CLR
11:19 31.1 °C 12.9 °C 1012.3 hPa ENE 10.0 km/h 13.0 km/h 33% 0.0 mm CLR
11:24 31.3 °C 13.6 °C 1012.3 hPa NNE 10.0 km/h 16.7 km/h 34% 0.0 mm CLR
11:29 31.3 °C 13.6 °C 1012.3 hPa NNE 10.0 km/h 14.8 km/h 34% 0.0 mm CLR
11:34 31.4 °C 14.1 °C 1012.0 hPa NE 10.0 km/h 24.1 km/h 35% 0.0 mm CLR
11:39 31.6 °C 14.3 °C 1012.0 hPa NNE 12.2 km/h 20.4 km/h 35% 0.0 mm CLR
11:44 31.6 °C 14.3 °C 1012.0 hPa ESE 12.2 km/h 18.5 km/h 35% 0.0 mm CLR
11:49 31.6 °C 14.3 °C 1012.1 hPa NE 13.0 km/h 16.7 km/h 35% 0.0 mm CLR
11:54 31.5 °C 14.6 °C 1012.1 hPa NNE 13.0 km/h 14.8 km/h 36% 0.0 mm CLR
11:59 31.4 °C 14.9 °C 1012.1 hPa NE 10.3 km/h 16.7 km/h 37% 0.0 mm CLR
12:04 31.4 °C 15.4 °C 1012.0 hPa NE 10.3 km/h 15.6 km/h 38% 0.0 mm CLR
12:09 31.5 °C 15.4 °C 1012.0 hPa ENE 12.2 km/h 22.2 km/h 38% 0.0 mm CLR
12:14 31.3 °C 15.7 °C 1012.0 hPa NE 12.2 km/h 22.2 km/h 39% 0.0 mm CLR
12:19 31.1 °C 15.5 °C 1012.2 hPa NE 14.8 km/h 18.5 km/h 39% 0.0 mm CLR
12:24 31.1 °C 15.9 °C 1012.2 hPa NNE 14.8 km/h 16.7 km/h 40% 0.0 mm CLR
12:29 31.2 °C 16.4 °C 1012.2 hPa ENE 13.0 km/h 14.8 km/h 41% 0.0 mm CLR
12:34 31.2 °C 16.4 °C 1012.2 hPa NNE 13.0 km/h 22.2 km/h 41% 0.0 mm CLR
12:39 31.2 °C 16.4 °C 1012.2 hPa ENE 13.7 km/h 25.9 km/h 41% 0.0 mm CLR
12:44 31.3 °C 16.8 °C 1012.2 hPa NE 13.7 km/h 19.0 km/h 42% 0.0 mm CLR
12:49 31.2 °C 17.1 °C 1012.1 hPa NNE 14.8 km/h 22.2 km/h 43% 0.0 mm CLR
12:54 31.3 °C 17.2 °C 1012.1 hPa North 14.8 km/h 20.4 km/h 43% 0.0 mm CLR
12:59 31.4 °C 16.9 °C 1012.1 hPa NNE 13.7 km/h 18.5 km/h 42% 0.0 mm CLR
13:04 31.6 °C 17.1 °C 1012.0 hPa North 13.7 km/h 19.0 km/h 42% 0.0 mm CLR
13:09 31.6 °C 17.1 °C 1012.0 hPa North 13.7 km/h 24.1 km/h 42% 0.0 mm CLR
13:14 31.7 °C 17.6 °C 1012.0 hPa ENE 13.7 km/h 14.8 km/h 43% 0.0 mm CLR
13:19 31.9 °C 17.8 °C 1011.8 hPa North 13.0 km/h 22.2 km/h 43% 0.0 mm CLR
13:24 31.8 °C 17.7 °C 1011.8 hPa NNE 13.0 km/h 22.2 km/h 43% 0.0 mm CLR
13:29 31.9 °C 17.8 °C 1011.8 hPa NNE 14.8 km/h 24.1 km/h 43% 0.0 mm CLR
13:34 32.1 °C 18.3 °C 1011.7 hPa North 14.8 km/h 19.8 km/h 44% 0.0 mm CLR
13:39 32.0 °C 18.2 °C 1011.7 hPa ENE 14.0 km/h 16.7 km/h 44% 0.0 mm CLR
13:44 32.1 °C 18.3 °C 1011.7 hPa NE 14.0 km/h 19.0 km/h 44% 0.0 mm CLR
13:49 32.4 °C 18.6 °C 1011.5 hPa North 12.2 km/h 22.0 km/h 44% 0.0 mm CLR
13:54 32.3 °C 18.5 °C 1011.5 hPa NNE 12.2 km/h 20.4 km/h 44% 0.0 mm CLR
13:59 32.3 °C 18.5 °C 1011.5 hPa NE 15.6 km/h 20.4 km/h 44% 0.0 mm CLR
14:04 32.6 °C 18.4 °C 1011.4 hPa NE 15.6 km/h 20.9 km/h 43% 0.0 mm CLR
14:09 32.6 °C 18.8 °C 1011.4 hPa NNE 11.9 km/h 20.4 km/h 44% 0.0 mm CLR
14:14 32.8 °C 18.9 °C 1011.4 hPa ESE 11.9 km/h 13.0 km/h 44% 0.0 mm CLR
14:19 32.9 °C 18.7 °C 1011.2 hPa NE 11.1 km/h 22.2 km/h 43% 0.0 mm CLR
14:24 32.9 °C 18.7 °C 1011.2 hPa NNE 11.1 km/h 20.4 km/h 43% 0.0 mm CLR
14:29 33.1 °C 18.4 °C 1011.2 hPa NE 14.0 km/h 25.9 km/h 42% 0.0 mm CLR
14:34 33.2 °C 18.6 °C 1011.1 hPa ENE 14.0 km/h 24.1 km/h 42% 0.0 mm CLR
14:39 33.1 °C 18.8 °C 1011.1 hPa North 13.0 km/h 27.8 km/h 43% 0.0 mm CLR
14:44 33.2 °C 18.9 °C 1011.1 hPa NE 13.0 km/h 25.9 km/h 43% 0.0 mm CLR
14:49 33.3 °C 18.7 °C 1010.9 hPa ENE 14.8 km/h 24.1 km/h 42% 0.0 mm CLR
14:54 33.2 °C 18.6 °C 1010.9 hPa NNE 14.8 km/h 24.1 km/h 42% 0.0 mm CLR
14:59 33.2 °C 18.2 °C 1010.9 hPa ENE 16.1 km/h 29.6 km/h 41% 0.0 mm CLR
15:04 33.2 °C 18.2 °C 1010.6 hPa NE 16.1 km/h 25.9 km/h 41% 0.0 mm CLR
15:09 33.4 °C 18.3 °C 1010.6 hPa NE 14.8 km/h 25.9 km/h 41% 0.0 mm CLR
15:14 33.7 °C 18.2 °C 1010.6 hPa NE 14.8 km/h 20.4 km/h 40% 0.0 mm CLR
15:19 33.6 °C 18.1 °C 1010.4 hPa NNE 14.0 km/h 24.1 km/h 40% 0.0 mm CLR
15:24 33.6 °C 18.1 °C 1010.4 hPa NNE 14.0 km/h 35.2 km/h 40% 0.0 mm CLR
15:29 33.7 °C 18.2 °C 1010.4 hPa NNE 17.2 km/h 24.1 km/h 40% 0.0 mm CLR
15:34 33.8 °C 18.3 °C 1010.4 hPa East 17.2 km/h 20.4 km/h 40% 0.0 mm CLR
15:39 33.8 °C 18.3 °C 1010.4 hPa NE 15.6 km/h 13.0 km/h 40% 0.0 mm CLR
15:44 34.2 °C 18.3 °C 1010.4 hPa North 15.6 km/h 20.4 km/h 39% 0.0 mm CLR
15:49 34.2 °C 18.3 °C 1010.2 hPa NNE 13.0 km/h 22.0 km/h 39% 0.0 mm CLR
15:54 34.3 °C 17.9 °C 1010.2 hPa ENE 13.0 km/h 18.5 km/h 38% 0.0 mm CLR
15:59 34.3 °C 17.9 °C 1010.2 hPa NNE 15.6 km/h 24.5 km/h 38% 0.0 mm CLR
16:04 34.4 °C 18.1 °C 1009.8 hPa East 15.6 km/h 23.7 km/h 38% 0.0 mm CLR
16:09 34.3 °C 18.3 °C 1009.8 hPa North 16.4 km/h 25.9 km/h 39% 0.0 mm CLR
16:14 34.5 °C 18.9 °C 1009.8 hPa North 16.4 km/h 25.9 km/h 40% 0.0 mm CLR
16:19 34.1 °C 18.6 °C 1009.7 hPa NNE 16.4 km/h 22.2 km/h 40% 0.0 mm CLR
16:24 34.4 °C 18.1 °C 1009.7 hPa NNE 16.4 km/h 16.7 km/h 38% 0.0 mm CLR
16:29 34.4 °C 18.8 °C 1009.7 hPa NE 13.7 km/h 24.1 km/h 40% 0.0 mm CLR
16:34 33.9 °C 18.8 °C 1009.5 hPa North 13.7 km/h 24.1 km/h 41% 0.0 mm CLR
16:39 33.7 °C 18.2 °C 1009.5 hPa NNE 18.3 km/h 27.8 km/h 40% 0.0 mm CLR
16:44 33.7 °C 18.6 °C 1009.5 hPa NE 18.3 km/h 22.0 km/h 41% 0.0 mm CLR
16:49 33.8 °C 18.3 °C 1009.3 hPa NE 16.4 km/h 29.6 km/h 40% 0.0 mm CLR
16:54 33.9 °C 18.4 °C 1009.3 hPa NE 16.4 km/h 22.2 km/h 40% 0.0 mm CLR
16:59 33.8 °C 17.9 °C 1009.3 hPa ENE 18.0 km/h 24.5 km/h 39% 0.0 mm CLR
17:04 34.1 °C 18.2 °C 1009.2 hPa NE 18.0 km/h 22.5 km/h 39% 0.0 mm CLR
17:09 34.0 °C 18.1 °C 1009.2 hPa NNW 14.8 km/h 25.9 km/h 39% 0.0 mm CLR
17:14 33.8 °C 18.7 °C 1009.2 hPa NE 14.8 km/h 29.6 km/h 41% 0.0 mm CLR
17:19 33.7 °C 19.0 °C 1009.0 hPa NNE 17.2 km/h 24.1 km/h 42% 0.0 mm CLR
17:24 33.6 °C 18.9 °C 1009.0 hPa ENE 17.2 km/h 29.6 km/h 42% 0.0 mm CLR
17:29 33.5 °C 18.8 °C 1009.0 hPa NNE 16.4 km/h 18.5 km/h 42% 0.0 mm CLR
17:34 33.3 °C 18.7 °C 1009.0 hPa NE 16.4 km/h 19.0 km/h 42% 0.0 mm CLR
17:39 33.3 °C 18.3 °C 1009.0 hPa NE 16.4 km/h 20.4 km/h 41% 0.0 mm CLR
17:44 33.2 °C 17.8 °C 1009.0 hPa NE 16.4 km/h 24.1 km/h 40% 0.0 mm CLR
17:49 33.2 °C 18.2 °C 1008.8 hPa North 17.2 km/h 27.8 km/h 41% 0.0 mm CLR
17:54 33.1 °C 18.1 °C 1008.8 hPa NNE 17.2 km/h 29.6 km/h 41% 0.0 mm CLR
17:59 32.9 °C 17.9 °C 1008.8 hPa NNE 18.3 km/h 18.3 km/h 41% 0.0 mm CLR
18:04 33.1 °C 17.7 °C 1008.8 hPa NE 18.3 km/h 22.2 km/h 40% 0.0 mm CLR
18:09 33.1 °C 17.3 °C 1008.8 hPa NE 16.4 km/h 25.9 km/h 39% 0.0 mm CLR
18:14 33.0 °C 16.4 °C 1008.8 hPa NNE 16.4 km/h 24.1 km/h 37% 0.0 mm CLR
18:19 33.0 °C 16.4 °C 1008.7 hPa NE 16.4 km/h 25.9 km/h 37% 0.0 mm CLR
18:24 32.9 °C 15.8 °C 1008.7 hPa NNE 16.4 km/h 27.8 km/h 36% 0.0 mm CLR
18:29 32.8 °C 15.8 °C 1008.7 hPa NNE 18.3 km/h 27.8 km/h 36% 0.0 mm CLR
18:34 32.8 °C 14.9 °C 1008.6 hPa NE 18.3 km/h 24.1 km/h 34% 0.0 mm CLR
18:39 32.9 °C 15.4 °C 1008.6 hPa NE 17.2 km/h 20.1 km/h 35% 0.0 mm CLR
18:44 32.9 °C 15.4 °C 1008.6 hPa East 17.2 km/h 20.4 km/h 35% 0.0 mm CLR
18:49 33.0 °C 15.5 °C 1008.6 hPa East 13.7 km/h 24.1 km/h 35% 0.0 mm CLR
18:54 32.9 °C 14.9 °C 1008.6 hPa East 13.7 km/h 22.2 km/h 34% 0.0 mm CLR
18:59 32.9 °C 14.5 °C 1008.6 hPa NNE 14.8 km/h 22.2 km/h 33% 0.0 mm CLR
19:04 32.9 °C 13.6 °C 1008.6 hPa ENE 14.8 km/h 20.4 km/h 31% 0.0 mm CLR
19:09 32.8 °C 15.3 °C 1008.6 hPa NE 14.8 km/h 20.4 km/h 35% 0.0 mm CLR
19:14 32.8 °C 15.3 °C 1008.6 hPa ENE 14.8 km/h 20.4 km/h 35% 0.0 mm CLR
19:19 32.8 °C 15.8 °C 1008.5 hPa NNE 13.0 km/h 18.5 km/h 36% 0.0 mm CLR
19:24 32.7 °C 16.1 °C 1008.5 hPa ENE 13.0 km/h 24.1 km/h 37% 0.0 mm CLR
19:29 32.6 °C 16.0 °C 1008.5 hPa NNE 13.7 km/h 17.2 km/h 37% 0.0 mm CLR
19:34 32.4 °C 15.8 °C 1008.4 hPa ENE 13.7 km/h 22.2 km/h 37% 0.0 mm CLR
19:39 32.2 °C 16.1 °C 1008.4 hPa ENE 14.0 km/h 22.2 km/h 38% 0.0 mm CLR
19:44 32.1 °C 15.6 °C 1008.4 hPa East 14.0 km/h 20.4 km/h 37% 0.0 mm CLR
19:49 31.9 °C 15.8 °C 1008.6 hPa NE 14.8 km/h 16.7 km/h 38% 0.0 mm CLR
19:54 31.9 °C 15.8 °C 1008.6 hPa NE 14.8 km/h 20.4 km/h 38% 0.0 mm CLR
19:59 31.8 °C 16.1 °C 1008.6 hPa ENE 11.1 km/h 20.4 km/h 39% 0.0 mm CLR
20:04 31.6 °C 16.3 °C 1008.5 hPa ENE 11.1 km/h 24.1 km/h 40% 0.0 mm CLR
20:09 31.4 °C 16.6 °C 1008.5 hPa ENE 14.0 km/h 14.8 km/h 41% 0.0 mm CLR
20:14 31.3 °C 16.8 °C 1008.5 hPa NNE 14.0 km/h 24.1 km/h 42% 0.0 mm CLR
20:19 31.2 °C 17.1 °C 1008.6 hPa NE 13.0 km/h 16.7 km/h 43% 0.0 mm CLR
20:24 31.1 °C 17.4 °C 1008.6 hPa NE 13.0 km/h 18.5 km/h 44% 0.0 mm CLR
20:29 30.9 °C 17.2 °C 1008.6 hPa NNE 11.9 km/h 18.5 km/h 44% 0.0 mm CLR
20:34 30.8 °C 17.1 °C 1008.6 hPa North 11.9 km/h 16.7 km/h 44% 0.0 mm CLR
20:39 30.6 °C 16.9 °C 1008.6 hPa ENE 10.3 km/h 16.7 km/h 44% 0.0 mm CLR
20:44 30.4 °C 17.8 °C 1008.6 hPa NNE 10.3 km/h 19.8 km/h 47% 0.0 mm CLR
20:49 30.1 °C 18.2 °C 1008.8 hPa NE 11.9 km/h 18.5 km/h 49% 0.0 mm CLR
20:54 29.7 °C 18.8 °C 1008.8 hPa NE 11.9 km/h 19.8 km/h 52% 0.0 mm CLR
20:59 29.4 °C 18.8 °C 1008.8 hPa ENE 13.0 km/h 16.7 km/h 53% 0.0 mm CLR
21:04 29.2 °C 18.9 °C 1009.1 hPa NNE 13.0 km/h 24.1 km/h 54% 0.0 mm CLR
21:09 28.9 °C 18.9 °C 1009.1 hPa North 16.1 km/h 20.4 km/h 55% 0.0 mm CLR
21:14 28.7 °C 19.1 °C 1009.1 hPa ENE 16.1 km/h 22.2 km/h 56% 0.0 mm CLR
21:19 28.4 °C 19.3 °C 1009.0 hPa North 14.8 km/h 24.1 km/h 58% 0.0 mm CLR
21:24 28.1 °C 19.3 °C 1009.0 hPa NE 14.8 km/h 25.9 km/h 59% 0.0 mm CLR
21:29 27.9 °C 19.4 °C 1009.0 hPa ENE 16.1 km/h 22.2 km/h 60% 0.0 mm CLR
21:34 27.8 °C 19.8 °C 1009.2 hPa NNE 16.1 km/h 18.5 km/h 62% 0.0 mm CLR
21:39 27.7 °C 20.0 °C 1009.2 hPa NNE 14.0 km/h 18.5 km/h 63% 0.0 mm CLR
21:44 27.5 °C 20.1 °C 1009.2 hPa NE 14.0 km/h 25.9 km/h 64% 0.0 mm CLR
21:49 27.4 °C 20.5 °C 1009.5 hPa NNE 13.7 km/h 20.4 km/h 66% 0.0 mm CLR
21:54 27.3 °C 20.4 °C 1009.5 hPa NNE 13.7 km/h 16.7 km/h 66% 0.0 mm CLR
21:59 27.2 °C 20.8 °C 1009.5 hPa NE 12.2 km/h 18.5 km/h 68% 0.0 mm CLR
22:04 27.1 °C 20.7 °C 1009.5 hPa NE 12.2 km/h 16.7 km/h 68% 0.0 mm CLR
22:09 26.9 °C 20.7 °C 1009.5 hPa ENE 13.0 km/h 16.7 km/h 69% 0.0 mm CLR
22:14 26.9 °C 20.9 °C 1009.5 hPa ENE 13.0 km/h 18.5 km/h 70% 0.0 mm CLR
22:19 26.8 °C 21.1 °C 1009.7 hPa NE 13.0 km/h 14.0 km/h 71% 0.0 mm CLR
22:24 26.7 °C 21.0 °C 1009.7 hPa ENE 13.0 km/h 14.8 km/h 71% 0.0 mm CLR
22:29 26.7 °C 21.2 °C 1009.7 hPa NE 11.1 km/h 18.5 km/h 72% 0.0 mm CLR
22:34 26.6 °C 21.1 °C 1009.8 hPa ENE 11.1 km/h 11.1 km/h 72% 0.0 mm CLR
22:39 26.6 °C 21.3 °C 1009.8 hPa ESE 9.5 km/h 14.8 km/h 73% 0.0 mm CLR
22:44 26.4 °C 21.2 °C 1009.8 hPa North 9.5 km/h 13.0 km/h 73% 0.0 mm CLR
22:49 26.4 °C 21.2 °C 1009.9 hPa NNE 10.0 km/h 16.7 km/h 73% 0.0 mm CLR
22:54 26.3 °C 21.3 °C 1009.9 hPa NE 10.0 km/h 18.5 km/h 74% 0.0 mm CLR
22:59 26.3 °C 21.3 °C 1009.9 hPa ENE 11.1 km/h 16.7 km/h 74% 0.0 mm CLR
23:04 26.2 °C 21.4 °C 1009.9 hPa NE 11.1 km/h 16.7 km/h 75% 0.0 mm CLR
23:09 26.2 °C 21.4 °C 1009.9 hPa NNE 11.9 km/h 13.0 km/h 75% 0.0 mm CLR
23:14 26.2 °C 21.4 °C 1009.9 hPa NE 11.9 km/h 14.8 km/h 75% 0.0 mm CLR
23:19 26.2 °C 21.6 °C 1010.2 hPa NE 10.3 km/h 16.7 km/h 76% 0.0 mm CLR
23:24 26.2 °C 21.6 °C 1010.2 hPa NE 10.3 km/h 14.8 km/h 76% 0.0 mm CLR
23:29 26.1 °C 21.6 °C 1010.2 hPa NNE 8.4 km/h 11.1 km/h 76% 0.0 mm CLR
23:34 26.1 °C 21.6 °C 1010.4 hPa NE 8.4 km/h 16.7 km/h 76% 0.0 mm CLR
23:39 26.1 °C 21.6 °C 1010.4 hPa NE 8.7 km/h 14.8 km/h 76% 0.0 mm CLR
23:44 26.0 °C 21.4 °C 1010.4 hPa NE 8.7 km/h 13.0 km/h 76% 0.0 mm CLR
23:49 26.0 °C 21.4 °C 1010.3 hPa NE 10.0 km/h 14.8 km/h 76% 0.0 mm CLR
23:54 25.9 °C 21.6 °C 1010.3 hPa NE 10.0 km/h 14.8 km/h 77% 0.0 mm CLR
23:59 25.9 °C 21.6 °C 1010.3 hPa NNE 8.7 km/h 12.2 km/h 77% 0.0 mm CLR
Murcia-Puente Tocinos, España
Compliments of Weather Underground - 2.75 mb

La estación de MeteoMurcia.com, publica sus datos en los siguientes proyectos:

Weather Underground PWS IMURCIAP2 Meteoclimatic www.awekas.at

W3Counter
Web Analytics